Terminal Aerodrome Forecast
Issued by NWS

Home | Current Version | Previous Version | Text Only | Print | Product List | Glossary On
Versions: 1 2 3 4 5 6 7 8 9 10 11 12 13 14 15 16 17 18 19 20 21 22 23 24 25
000
FTUS41 KPBZ 071733
TAFFKL
TAF
KFKL 071733Z 0718/0818 21013G23KT P6SM BKN040
     FM080000 23008KT 4SM TSRA OVC035CB
      TEMPO 0801/0803 2SM TSRA OVC020CB
     FM080500 25006KT 3SM BR VCSH OVC004
     FM081600 03007KT 6SM BR OVC010
      AMD LTD TO CLD VIS AND WIND=

USA.gov is the U.S. government's official web portal to all federal, state and local government web resources and services.